Lid_Strength_Index
-1 0 1 5 10 10 11 8 6 6 6 4 4 5 6 5 8 12 1 1 1 1 -0 -0 -0 -1 -1 -1 -1 -1 -1 -1 -1 -1 -1 -1 -1 -1 -1 -1 -1 -1 -1 -1 -1 -1 -1 -1 -1
-1 0 1 6 11 13 11 7 7 6 4 4 4 4 5 5 4 4 3 1 0 0 -0 -0 -0 -0 -1 -1 -1 -1 -1 -1 -1 -1 -1 -1 -1 -1 -1 -1 -1 -1 -1 -1 -1 -1 -1 -1 -1
-0 0 5 8 10 12 12 8 6 5 4 4 5 3 4 5 3 3 1 1 0 0 -0 -0 -0 -0 -1 -1 -1 -1 -1 -1 -1 -1 -1 -1 -1 -1 -1 -1 -1 -1 -1 -1 -1 -1 -1 -1 -1
2 3 5 9 10 8 9 8 7 7 5 4 4 5 3 2 3 2 1 0 1 0 -0 -0 -0 -0 -1 -1 -1 -1 -1 -1 -1 -1 -1 -1 -1 -1 -1 -1 -1 -2 -2 -1 -1 -1 -1 -1 -1
2 4 9 9 9 8 6 5 5 7 6 5 4 5 4 2 1 1 1 1 1 1 0 -0 -0 -0 -1 -1 -1 -1 -1 -1 -1 -1 -1 -1 -1 -1 -1 -1 -1 -1 -1 -1 -1 -1 -1 -1 -1
6 5 10 11 9 7 6 5 5 6 6 5 5 4 4 2 2 1 1 1 0 1 0 -0 -0 -0 -0 -1 -1 -1 -1 -1 -1 -1 -1 -1 -1 -1 -1 -1 -1 -1 -1 -1 -1 -1 -1 -1 -1
7 8 10 10 9 8 6 4 5 5 5 6 5 6 4 3 1 1 1 0 0 0 0 -0 -0 -0 -1 -1 -1 -1 -1 -1 -1 -1 -1 -1 -1 -1 -1 -1 -1 -1 -1 -1 -1 -1 -1 -1 -1
7 7 9 9 9 9 6 5 4 5 5 3 4 6 5 3 1 1 1 1 1 1 0 0 0 -0 -0 -0 -1 -1 -1 -1 -1 -1 -1 -1 -1 -1 -1 -1 -1 -1 -1 -1 -1 -1 -1 -1 -2
5 10 11 10 9 8 5 6 4 3 4 4 3 3 3 2 1 2 2 2 1 1 1 0 0 0 -0 -0 -1 -1 -1 -1 -1 -1 -1 -1 -1 -1 -1 -1 -1 -1 -1 -1 -2 -2 -2 -2 -2
8 10 10 7 7 7 6 5 5 5 5 5 4 3 2 2 2 2 3 3 2 2 1 0 0 0 -0 -0 -0 -0 -1 -1 -1 -1 -1 -1 -1 -1 -1 -1 -1 -1 -1 -2 -2 -2 -2 -2 -0
8 10 8 7 6 6 6 7 5 6 6 5 5 4 3 2 3 3 3 2 2 2 1 1 0 0 0 0 -0 -0 -0 -0 -1 -1 -1 -1 -1 -1 -0 -0 -1 -1 -1 -1 -1 -1 -1 -0 0
8 7 7 6 6 6 7 6 7 6 5 3 3 3 3 3 2 3 3 2 2 2 1 1 0 0 0 0 0 -0 0 -0 -0 -0 -1 -0 -0 -0 -0 -0 -0 -0 -1 -0 -0 -0 -1 -1 -1
6 6 5 5 5 6 6 7 7 6 4 3 3 3 3 3 2 2 2 2 2 2 2 1 0 0 0 0 0 0 0 0 -0 -0 -1 -1 -0 0 -0 -0 -0 -0 -0 -0 -0 -0 -0 -0 -0
5 5 5 5 5 5 6 6 7 6 4 4 4 4 3 3 2 2 2 2 2 2 2 1 1 0 0 0 0 0 -0 -0 -0 -0 -1 -1 -0 -0 0 -0 -0 -0 -1 -1 -0 0 0 0 0
5 7 6 6 5 6 5 7 7 5 5 5 5 4 4 3 2 2 3 2 2 2 2 2 1 0 0 0 0 0 0 -0 0 -0 -1 -1 -1 -0 -0 -0 0 0 -1 -1 -0 -0 -0 0 0
7 7 9 6 6 5 6 9 6 5 5 7 6 5 4 3 3 2 1 4 1 2 2 1 1 1 1 0 0 0 0 -0 -0 -0 -0 -1 -1 -1 -0 0 0 -1 -1 -0 0 0 1 1 1
8 11 9 8 6 6 7 8 6 4 4 5 5 5 5 4 2 2 2 1 2 2 2 2 1 1 1 0 0 0 0 0 -0 -0 -0 -1 -1 -1 -0 -0 -0 -1 -0 0 0 1 1 1 1
11 10 9 9 7 7 8 8 6 5 5 5 5 4 5 4 3 2 2 1 1 2 2 1 1 1 1 1 1 0 0 0 -0 0 -0 -0 -1 -1 -0 -0 -0 -0 0 0 0 1 0 1 1
8 9 10 8 6 8 8 8 7 5 5 5 5 5 4 4 3 2 2 1 2 2 2 2 2 1 1 1 2 2 2 1 1 -0 -0 -0 -1 -1 -0 -0 0 -0 0 1 0 1 1 1 1
9 10 10 8 7 7 8 9 7 6 6 5 5 5 4 4 3 2 2 2 2 2 2 2 2 1 1 1 1 1 1 1 0 0 0 -0 -0 -1 -0 -0 0 0 1 1 1 1 2 1 1
9 10 10 10 8 7 8 10 8 6 5 5 4 4 4 4 4 3 3 2 2 3 2 2 2 1 1 1 1 1 1 1 1 1 1 0 -0 -0 -0 -0 0 0 0 1 2 1 1 2 1
11 7 8 10 10 13 9 16 10 8 7 6 5 5 4 4 3 3 3 2 2 3 2 2 2 1 1 1 1 2 2 3 2 1 1 0 -0 -0 -0 -0 -0 0 0 1 1 0 1 2 3
10 7 9 10 11 12 12 14 11 8 9 8 6 5 4 4 3 3 3 2 2 3 2 2 2 2 1 1 1 2 2 2 1 1 1 1 1 0 0 -0 -0 1 1 1 0 2 1 1 2
7 8 9 10 12 18 13 13 13 10 9 7 6 5 4 4 3 3 2 2 3 2 2 2 2 2 1 1 1 1 2 2 2 2 2 1 1 1 1 0 -0 -0 0 0 0 0 0 1 1
10 12 19 20 20 19 11 13 12 8 7 6 6 5 4 4 4 3 3 3 3 3 3 2 2 3 2 1 1 1 2 2 2 2 2 2 2 2 1 0 0 0 -0 -0 0 1 1 1 1
13 14 17 22 22 18 11 17 13 7 6 5 5 5 4 4 4 3 3 3 4 3 3 3 3 2 2 1 1 1 1 1 1 1 1 1 2 1 0 0 0 -0 0 0 0 1 1 0 1
12 16 12 17 15 18 14 11 9 7 7 6 6 5 5 4 4 3 3 3 4 3 3 3 3 2 2 2 1 1 1 1 1 1 1 1 0 0 0 0 1 0 -0 1 -0 0 1 1 1
9 9 17 16 20 20 15 14 12 9 8 8 7 6 5 4 4 3 3 3 3 3 3 2 2 2 2 2 1 1 1 1 1 1 1 1 0 0 0 1 1 1 1 1 0 0 0 1 1
12 14 14 13 15 19 19 14 8 9 8 8 7 6 5 4 4 3 3 3 3 3 3 3 3 2 2 2 2 2 1 1 1 1 1 1 0 0 1 1 2 2 1 1 0 0 0 1 1
9 12 12 18 16 14 15 17 7 7 6 6 6 5 4 4 4 3 4 4 4 4 3 3 3 3 2 2 2 2 2 2 1 1 1 0 1 1 2 2 3 1 1 0 1 1 1 1 1